Wind_Speed
5 4 3 5 5 4 3 2 1 3 3 5 6 6 7 8 8 8 9 10 11 11 12 13 14 15 16 17 18 19 21 22 22 22 23 24 24 25 26 26 27 27 27
6 5 5 5 5 4 3 2 0 2 3 4 5 6 7 7 8 9 9 10 10 11 12 13 14 15 16 17 18 19 20 21 22 23 23 24 25 26 26 27 27 28 28
6 6 7 5 4 3 2 1 0 1 3 4 5 6 7 7 8 8 9 10 11 11 12 14 15 16 17 17 18 19 20 21 22 23 24 25 26 26 27 28 28 28 29
7 7 7 5 4 3 3 2 1 2 3 4 5 6 7 7 8 9 10 11 12 13 14 15 16 17 17 18 19 20 20 21 22 23 23 24 25 26 27 28 29 29 30
6 7 6 5 4 3 3 3 3 3 4 4 5 6 7 8 8 9 10 11 12 14 15 16 17 18 19 20 20 21 22 22 23 23 24 24 25 26 27 28 28 29 30
6 6 5 4 3 3 3 4 4 4 4 5 6 6 7 8 9 10 11 13 14 15 16 18 19 20 21 22 23 23 23 23 24 25 25 26 26 26 27 28 29 29 30
5 5 4 3 2 3 3 3 3 4 5 6 7 7 8 9 10 11 12 14 15 17 18 20 21 22 23 24 24 25 25 25 26 26 27 27 28 28 28 28 29 30 31
4 4 3 2 2 2 3 3 4 4 5 6 7 8 9 10 11 12 14 15 17 19 21 22 23 24 24 25 25 26 27 27 28 29 29 30 30 30 30 30 31 31 32
3 3 2 2 2 2 3 3 4 5 6 7 8 9 10 11 12 14 15 17 19 21 23 24 25 25 26 26 27 28 28 28 29 30 31 31 32 32 32 32 33 33 33
3 3 2 2 2 3 3 4 5 6 7 8 9 10 11 12 14 15 17 19 21 23 25 26 27 27 28 29 29 30 30 30 31 31 31 32 33 33 34 34 35 35 35
3 2 2 2 3 3 4 5 6 7 8 9 10 11 12 14 15 17 19 21 23 25 27 28 29 30 30 31 32 32 32 32 32 32 32 33 33 34 35 35 36 37 37
2 2 2 3 4 5 6 7 8 8 9 10 11 13 14 15 17 18 21 23 25 26 28 30 31 32 33 33 34 34 34 34 34 34 34 34 34 34 35 35 36 37 38
3 3 4 5 6 7 8 8 9 9 11 12 13 15 16 17 19 21 23 25 26 28 30 31 33 34 34 35 35 35 35 35 35 35 35 35 34 34 34 35 35 36 37
5 6 6 7 8 8 9 10 10 11 13 14 16 17 18 20 21 23 25 27 29 30 32 33 34 35 36 37 37 37 36 36 36 36 35 34 34 33 33 34 34 35 35
7 8 8 9 9 10 11 12 13 14 15 17 18 19 21 22 24 25 27 29 30 32 33 35 36 37 38 38 38 38 37 37 36 36 35 34 33 33 33 33 33 34 34
8 9 10 11 12 12 13 14 15 16 17 19 20 21 23 25 26 28 29 30 32 33 35 36 38 39 40 40 40 39 39 37 36 35 34 33 33 33 33 33 33 33 33
10 11 12 14 14 15 15 16 17 18 19 21 22 24 25 27 28 29 31 32 33 34 36 38 39 40 41 41 41 40 39 37 36 35 34 33 33 33 33 32 32 33 33
12 13 14 15 16 17 18 19 20 21 22 23 24 25 27 28 29 31 32 34 35 36 37 39 40 42 42 42 41 40 39 37 36 35 34 33 33 33 33 32 32 33 33
14 14 15 16 18 19 20 21 22 23 24 26 26 27 29 30 32 33 34 35 37 38 39 40 42 42 43 42 41 40 38 37 36 35 34 34 33 33 33 32 32 32 33
17 17 17 18 20 21 22 23 23 25 26 27 28 29 31 32 34 35 35 37 38 39 40 41 42 43 43 42 41 40 38 37 36 35 35 34 34 33 33 32 32 32 32
19 19 20 20 22 23 24 25 26 27 28 29 30 32 33 34 35 36 37 39 39 40 41 42 42 43 43 42 41 39 38 36 36 35 35 34 34 33 32 32 31 31 31
20 21 22 23 24 25 26 27 28 29 30 31 32 33 35 36 37 38 39 40 40 41 42 42 42 43 43 42 40 39 38 36 36 35 34 34 33 32 32 31 30 30 29
23 24 25 25 26 27 28 29 30 31 32 32 33 35 36 37 38 40 41 41 41 42 43 43 43 43 43 42 40 39 38 36 35 35 34 33 32 31 31 30 30 29 28
24 26 27 28 29 29 30 31 32 33 34 35 36 37 38 39 40 41 42 42 42 43 43 44 44 43 43 42 41 39 38 36 35 35 34 32 32 31 31 30 29 28 28
27 28 29 29 30 31 32 33 34 35 36 37 38 39 40 40 41 42 43 43 44 44 44 44 44 44 43 42 42 40 38 36 35 35 33 32 32 31 30 29 28 28 27
29 30 30 31 32 33 34 35 36 37 38 39 40 41 41 42 43 44 44 44 45 45 45 45 45 44 43 43 42 40 38 37 36 34 33 32 31 31 30 28 28 27 27
Wind_Direction
124 125 159 178 169 175 174 184 252 297 310 314 314 321 322 318 314 313 313 311 310 307 304 299 296 294 291 288 284 281 278 275 274 272 271 269 267 265 264 260 258 256 256
96 102 114 130 137 148 150 169 248 324 325 319 318 321 323 321 317 316 317 315 311 310 308 307 305 303 300 295 291 287 284 280 277 275 273 271 269 267 265 262 259 257 256
98 103 109 110 103 103 116 133 67 0 338 332 334 336 334 330 329 328 326 327 325 320 317 313 311 309 307 303 298 294 289 286 282 279 275 272 270 268 266 263 260 258 255
105 108 110 112 104 91 75 67 39 12 357 351 347 345 342 341 338 335 334 334 333 329 324 320 318 316 312 308 304 300 295 291 288 284 280 276 272 269 267 265 262 260 257
103 105 109 111 103 75 46 34 29 10 2 357 354 353 348 344 343 341 340 339 336 333 328 324 321 318 315 312 308 303 298 295 292 288 284 280 276 272 269 267 264 261 258
100 103 100 98 79 44 28 17 11 5 3 3 3 358 351 347 345 344 343 341 338 336 332 328 324 320 317 314 310 306 302 298 294 290 287 284 280 276 271 268 266 263 260
100 95 89 85 67 45 26 15 8 2 3 4 2 357 352 349 347 345 343 340 338 337 334 331 326 322 318 314 311 308 304 300 295 291 288 285 282 278 273 269 266 264 262
95 94 89 76 58 36 17 7 6 6 4 358 354 353 350 347 345 343 341 341 340 338 335 332 329 325 322 318 314 311 306 302 298 293 290 286 282 279 274 270 266 263 262
91 93 83 71 51 28 12 6 360 359 356 350 347 347 345 344 342 340 340 339 338 337 335 333 330 327 324 321 318 314 310 305 301 296 292 288 283 280 276 272 268 264 261
72 78 67 57 37 14 0 351 347 348 347 346 345 343 341 339 337 337 336 336 335 334 333 332 331 328 325 322 319 317 313 308 304 300 295 290 285 281 277 274 270 266 262
66 60 44 25 8 355 344 339 338 337 337 338 336 334 334 333 332 332 332 332 331 331 331 331 329 327 326 323 320 318 315 311 306 303 298 293 288 283 279 275 272 268 264
35 2 348 341 336 331 329 331 330 327 328 328 326 325 325 326 327 326 327 328 328 329 330 330 328 326 325 323 322 319 316 312 308 304 299 295 290 286 282 278 274 270 266
347 329 321 321 320 319 318 319 319 319 319 318 319 319 319 320 322 323 324 325 325 326 327 328 328 326 325 323 322 320 317 314 310 305 301 296 292 288 284 281 277 273 269
321 316 314 312 311 308 307 309 310 309 309 311 313 314 315 316 318 320 321 321 322 323 324 325 326 325 324 323 321 320 318 315 311 307 303 298 294 290 287 283 280 275 271
306 307 308 304 302 301 302 303 304 305 306 308 310 311 312 313 315 317 318 319 320 321 322 323 324 324 324 323 322 320 318 315 312 308 304 300 295 292 289 286 282 278 273
296 297 296 295 295 296 298 299 300 303 306 307 308 308 309 310 312 315 317 318 319 320 321 321 322 324 324 323 322 320 318 315 312 308 305 301 297 294 291 288 284 280 276
289 289 290 290 291 291 293 295 297 300 302 304 305 306 307 309 311 313 315 316 317 319 320 321 322 323 323 323 322 320 318 315 312 309 306 303 299 296 293 290 286 282 277
288 288 288 286 286 286 288 290 293 296 298 301 303 305 306 307 309 311 312 313 315 317 319 321 322 322 322 322 321 320 318 315 312 308 306 304 301 297 294 291 287 283 279
282 284 286 286 285 285 285 288 291 293 296 299 301 303 304 305 307 309 311 312 314 316 318 319 321 321 321 321 320 319 317 315 312 308 306 304 302 299 296 292 289 285 280
282 283 284 285 285 285 286 287 289 291 293 296 298 300 303 305 308 310 311 312 313 314 316 318 320 320 320 320 319 318 316 314 311 309 306 304 303 301 299 295 290 285 281
282 284 284 285 286 286 287 288 290 291 293 295 297 299 302 304 307 309 310 311 312 313 314 316 318 319 319 319 318 317 315 313 311 309 307 305 304 303 301 297 293 287 283
284 285 285 286 286 286 287 288 290 291 293 296 297 299 302 304 305 307 309 310 310 312 313 315 316 318 318 318 317 316 315 313 311 309 307 305 304 304 302 299 295 289 285
285 285 285 287 287 287 288 289 291 293 294 296 298 300 302 304 305 307 309 309 310 311 312 313 315 316 316 317 316 315 314 313 311 310 307 306 305 304 303 300 296 291 287
287 287 288 288 288 288 288 290 292 293 294 296 297 299 301 303 305 306 308 308 309 310 311 312 314 314 315 315 315 315 313 312 311 310 308 306 305 305 304 300 297 292 290
287 288 288 288 288 287 288 290 292 293 295 296 297 299 300 302 304 306 307 307 308 309 310 311 312 313 313 313 313 313 312 311 310 309 307 306 305 305 304 301 297 294 291
286 286 286 287 286 287 288 289 291 293 295 295 296 298 299 301 303 304 305 306 307 307 309 309 310 311 311 312 312 311 310 309 309 308 306 305 305 304 303 300 298 294 292
Height
5861 5862 5864 5866 5867 5869 5869 5870 5871 5871 5871 5871 5871 5871 5870 5869 5868 5867 5866 5865 5864 5863 5862 5861 5860 5858 5857 5856 5856 5855 5854 5853 5853 5852 5852 5852 5851 5851 5851 5851 5852 5853 5854
5861 5862 5863 5865 5866 5867 5869 5870 5870 5870 5870 5870 5870 5869 5868 5867 5866 5865 5864 5862 5861 5860 5858 5857 5856 5855 5853 5852 5851 5850 5848 5847 5847 5846 5846 5845 5846 5845 5845 5845 5845 5846 5847
5862 5862 5863 5865 5866 5867 5868 5868 5868 5869 5868 5868 5868 5867 5866 5865 5864 5862 5861 5860 5858 5856 5855 5854 5852 5851 5849 5848 5846 5844 5843 5842 5841 5840 5840 5839 5838 5838 5838 5837 5838 5838 5839
5863 5863 5864 5865 5866 5867 5867 5867 5868 5867 5867 5867 5866 5865 5864 5863 5862 5860 5859 5857 5856 5854 5852 5851 5849 5847 5845 5843 5841 5839 5838 5836 5834 5833 5832 5832 5831 5830 5830 5830 5830 5831 5832
5862 5863 5864 5865 5866 5866 5866 5866 5866 5866 5866 5865 5864 5863 5862 5861 5860 5858 5857 5855 5853 5851 5849 5847 5845 5843 5841 5838 5836 5834 5832 5830 5829 5827 5825 5825 5824 5823 5823 5822 5823 5823 5823
5863 5863 5864 5865 5865 5866 5866 5866 5865 5865 5864 5863 5862 5861 5860 5859 5857 5856 5854 5853 5851 5849 5846 5844 5841 5839 5836 5833 5831 5829 5826 5824 5822 5820 5819 5817 5816 5815 5815 5814 5814 5814 5815
5864 5864 5864 5864 5865 5865 5865 5865 5864 5863 5862 5861 5860 5859 5858 5857 5855 5854 5852 5850 5848 5845 5843 5840 5837 5834 5831 5828 5825 5822 5820 5818 5815 5813 5811 5809 5808 5807 5806 5806 5806 5806 5806
5864 5864 5864 5864 5864 5864 5864 5863 5863 5862 5860 5859 5858 5857 5856 5854 5853 5851 5849 5847 5844 5842 5839 5836 5832 5829 5826 5822 5819 5816 5813 5810 5808 5805 5803 5801 5799 5798 5797 5797 5797 5797 5797
5863 5863 5863 5863 5862 5862 5862 5861 5861 5860 5859 5858 5856 5855 5853 5852 5850 5848 5846 5843 5841 5838 5834 5831 5827 5824 5820 5816 5813 5809 5806 5802 5799 5796 5794 5792 5790 5788 5787 5787 5787 5788 5788
5861 5861 5861 5861 5861 5860 5860 5859 5859 5858 5856 5855 5854 5853 5851 5849 5847 5845 5842 5839 5836 5833 5830 5826 5822 5818 5814 5810 5806 5802 5798 5794 5790 5787 5784 5782 5780 5778 5777 5776 5776 5776 5777
5860 5860 5860 5860 5859 5859 5858 5857 5856 5855 5854 5853 5851 5850 5848 5846 5844 5841 5839 5836 5832 5829 5825 5821 5817 5812 5808 5803 5799 5794 5790 5786 5782 5778 5775 5772 5769 5767 5765 5764 5764 5764 5765
5858 5858 5858 5857 5857 5857 5856 5855 5854 5853 5852 5850 5849 5847 5845 5843 5841 5838 5835 5832 5828 5824 5820 5816 5811 5806 5801 5796 5791 5787 5782 5777 5773 5769 5765 5762 5759 5756 5754 5753 5752 5751 5751
5855 5855 5855 5855 5854 5854 5853 5852 5851 5850 5849 5848 5846 5844 5842 5840 5837 5834 5831 5827 5823 5819 5815 5810 5805 5800 5795 5789 5784 5778 5773 5768 5763 5759 5755 5751 5748 5745 5743 5741 5740 5739 5739
5852 5852 5852 5852 5851 5851 5850 5849 5849 5848 5846 5845 5843 5840 5838 5835 5832 5829 5825 5822 5818 5813 5809 5804 5799 5793 5788 5782 5776 5770 5765 5759 5754 5749 5745 5741 5737 5735 5732 5730 5728 5727 5727
5849 5849 5848 5848 5848 5848 5847 5846 5845 5844 5842 5840 5838 5836 5833 5830 5827 5824 5820 5816 5812 5807 5802 5797 5792 5786 5780 5774 5768 5762 5756 5750 5744 5739 5735 5731 5727 5724 5722 5720 5718 5716 5715
5846 5845 5845 5845 5844 5844 5843 5842 5841 5839 5838 5835 5833 5831 5828 5825 5822 5818 5814 5810 5805 5800 5795 5790 5784 5778 5772 5766 5759 5753 5747 5741 5735 5730 5726 5722 5718 5715 5712 5709 5707 5705 5704
5842 5841 5841 5840 5840 5839 5838 5837 5836 5834 5832 5830 5828 5825 5822 5819 5815 5811 5807 5803 5798 5793 5788 5782 5776 5770 5764 5757 5751 5744 5738 5732 5726 5721 5717 5712 5708 5705 5702 5699 5696 5694 5692
5838 5837 5836 5836 5835 5834 5833 5832 5830 5828 5826 5824 5821 5819 5815 5812 5808 5804 5800 5795 5791 5785 5780 5774 5768 5762 5755 5749 5742 5736 5729 5723 5717 5712 5708 5703 5699 5695 5692 5689 5686 5684 5682
5833 5833 5832 5831 5830 5828 5827 5826 5824 5822 5820 5817 5814 5811 5808 5805 5801 5797 5792 5787 5782 5777 5772 5766 5760 5753 5747 5740 5733 5727 5720 5714 5709 5703 5699 5694 5690 5686 5682 5679 5676 5673 5671
5828 5827 5826 5825 5824 5822 5821 5819 5817 5815 5813 5810 5807 5804 5800 5797 5793 5788 5784 5779 5774 5768 5763 5757 5751 5744 5738 5731 5724 5718 5712 5706 5700 5694 5689 5685 5681 5676 5672 5668 5665 5663 5660
5822 5821 5820 5818 5817 5815 5813 5812 5810 5807 5805 5802 5799 5796 5792 5788 5784 5779 5774 5770 5764 5759 5754 5748 5742 5735 5729 5722 5715 5709 5703 5697 5691 5685 5680 5675 5671 5667 5662 5659 5655 5652 5650
5815 5814 5813 5811 5810 5808 5806 5804 5802 5799 5796 5794 5790 5787 5783 5778 5774 5770 5765 5760 5755 5750 5744 5738 5732 5726 5719 5713 5706 5699 5693 5688 5682 5677 5671 5667 5662 5658 5653 5649 5646 5643 5640
5808 5807 5805 5804 5802 5800 5798 5796 5793 5790 5787 5784 5781 5777 5773 5769 5765 5760 5755 5750 5745 5740 5734 5728 5723 5716 5709 5703 5697 5691 5684 5679 5673 5668 5663 5658 5653 5649 5644 5640 5636 5633 5630
5800 5798 5797 5795 5794 5791 5789 5786 5784 5781 5778 5775 5771 5767 5763 5759 5755 5750 5745 5740 5735 5729 5724 5718 5712 5706 5700 5693 5687 5681 5675 5670 5664 5659 5653 5649 5644 5640 5635 5631 5627 5624 5621
5792 5790 5788 5787 5785 5782 5780 5777 5774 5771 5768 5765 5761 5757 5753 5749 5744 5740 5734 5729 5724 5718 5713 5707 5701 5696 5690 5683 5677 5671 5666 5660 5655 5650 5645 5640 5636 5631 5627 5623 5619 5615 5612
5782 5781 5779 5777 5774 5772 5770 5767 5764 5761 5758 5754 5750 5746 5742 5738 5733 5728 5724 5718 5713 5708 5702 5696 5690 5685 5679 5673 5667 5661 5656 5651 5646 5641 5636 5631 5627 5623 5618 5614 5610 5607 5604